TimeCST,TemperatureF,Dew PointF,Humidity,Sea Level PressureIn,VisibilityMPH,Wind Direction,Wind SpeedMPH,Gust SpeedMPH,PrecipitationIn,Events,Conditions,WindDirDegrees,DateUTC
12:00 AM,35.6,35.6,100,30.18,10.0,NNE,5.8,-,N/A,,Overcast,20,2012-11-04 05:00:00
12:20 AM,33.8,33.8,100,30.18,10.0,North,-9999.0,-,N/A,,Overcast,0,2012-11-04 05:20:00
12:40 AM,35.6,35.6,100,30.18,10.0,North,-9999.0,-,N/A,,Overcast,0,2012-11-04 05:40:00
1:00 AM,33.8,33.8,100,30.18,10.0,North,-9999.0,-,N/A,,Overcast,0,2012-11-04 06:00:00
1:20 AM,32.0,32.0,100,30.18,10.0,North,5.8,-,N/A,,Mostly Cloudy,360,2012-11-04 06:20:00
1:40 AM,32.0,32.0,100,30.18,10.0,NNW,5.8,-,N/A,,Mostly Cloudy,340,2012-11-04 06:40:00
1:00 AM,30.2,30.2,100,30.18,10.0,NNW,5.8,-,N/A,,Overcast,340,2012-11-04 07:00:00
1:20 AM,28.4,28.4,100,30.18,10.0,North,5.8,-,N/A,,Mostly Cloudy,350,2012-11-04 07:20:00
1:40 AM,28.4,28.4,100,30.18,10.0,NNW,5.8,-,N/A,,Overcast,340,2012-11-04 07:40:00
2:00 AM,30.2,30.2,100,30.18,10.0,North,4.6,-,N/A,,Overcast,350,2012-11-04 08:00:00
2:20 AM,28.4,28.4,100,30.17,10.0,North,4.6,-,N/A,,Mostly Cloudy,350,2012-11-04 08:20:00
2:40 AM,28.4,28.4,100,30.18,10.0,North,4.6,-,N/A,,Mostly Cloudy,360,2012-11-04 08:40:00
3:00 AM,28.4,28.4,100,30.17,10.0,North,5.8,-,N/A,,Mostly Cloudy,10,2012-11-04 09:00:00
3:20 AM,26.6,26.6,100,30.17,9.0,NNE,5.8,-,N/A,,Mostly Cloudy,20,2012-11-04 09:20:00
3:40 AM,26.6,26.6,100,30.16,10.0,NNE,6.9,-,N/A,,Mostly Cloudy,30,2012-11-04 09:40:00
4:00 AM,26.6,26.6,100,30.16,10.0,NNE,6.9,-,N/A,,Partly Cloudy,30,2012-11-04 10:00:00
4:20 AM,26.6,26.6,100,30.16,10.0,NE,6.9,-,N/A,,Clear,50,2012-11-04 10:20:00
4:40 AM,24.8,24.8,100,30.16,10.0,NE,3.5,-,N/A,,Partly Cloudy,50,2012-11-04 10:40:00
5:00 AM,26.6,26.6,100,30.15,10.0,ENE,5.8,-,N/A,,Clear,70,2012-11-04 11:00:00
5:20 AM,26.6,26.6,100,30.15,10.0,ENE,3.5,-,N/A,,Clear,70,2012-11-04 11:20:00
5:40 AM,26.6,26.6,100,30.16,10.0,ENE,4.6,-,N/A,,Clear,60,2012-11-04 11:40:00
6:00 AM,24.8,24.8,100,30.16,10.0,ENE,4.6,-,N/A,,Partly Cloudy,70,2012-11-04 12:00:00
6:20 AM,26.6,26.6,100,30.15,10.0,East,4.6,-,N/A,,Partly Cloudy,80,2012-11-04 12:20:00
6:40 AM,26.6,26.6,100,30.15,8.0,ENE,4.6,-,N/A,,Scattered Clouds,70,2012-11-04 12:40:00
7:00 AM,26.6,26.6,100,30.15,2.5,ENE,4.6,-,N/A,,Partly Cloudy,70,2012-11-04 13:00:00
7:20 AM,26.6,26.6,100,30.15,2.5,ENE,4.6,-,N/A,,Scattered Clouds,70,2012-11-04 13:20:00
7:40 AM,26.6,26.6,100,30.15,10.0,ENE,4.6,-,N/A,,Overcast,70,2012-11-04 13:40:00
8:00 AM,28.4,28.4,100,30.14,10.0,East,3.5,-,N/A,,Overcast,80,2012-11-04 14:00:00
8:20 AM,30.2,30.2,100,30.14,10.0,ENE,3.5,-,N/A,,Overcast,60,2012-11-04 14:20:00
8:40 AM,32.0,32.0,100,30.14,10.0,Calm,Calm,-,N/A,,Overcast,0,2012-11-04 14:40:00
9:00 AM,32.0,32.0,100,30.13,10.0,East,4.6,-,N/A,,Overcast,80,2012-11-04 15:00:00
9:20 AM,32.0,32.0,100,30.12,10.0,East,5.8,-,N/A,,Mostly Cloudy,90,2012-11-04 15:20:00
9:40 AM,33.8,33.8,100,30.12,10.0,East,4.6,-,N/A,,Mostly Cloudy,100,2012-11-04 15:40:00
10:00 AM,35.6,35.6,100,30.12,10.0,East,5.8,-,N/A,,Mostly Cloudy,100,2012-11-04 16:00:00
10:20 AM,35.6,35.6,100,30.11,10.0,ESE,5.8,-,N/A,,Overcast,120,2012-11-04 16:20:00
10:40 AM,37.4,37.4,100,30.11,10.0,SE,5.8,-,N/A,,Overcast,140,2012-11-04 16:40:00
11:00 AM,37.4,37.4,100,30.11,10.0,ESE,5.8,-,N/A,,Mostly Cloudy,120,2012-11-04 17:00:00
11:20 AM,37.4,37.4,100,30.11,10.0,SE,4.6,-,N/A,,Overcast,130,2012-11-04 17:20:00
11:40 AM,37.4,37.4,100,30.11,10.0,ESE,3.5,-,N/A,,Overcast,110,2012-11-04 17:40:00
12:00 PM,39.2,39.2,100,30.10,10.0,Calm,Calm,-,N/A,,Overcast,0,2012-11-04 18:00:00
12:20 PM,39.2,39.2,100,30.10,10.0,Calm,Calm,-,N/A,,Mostly Cloudy,0,2012-11-04 18:20:00
12:40 PM,39.2,39.2,100,30.09,10.0,Calm,Calm,-,N/A,Rain,Light Rain,0,2012-11-04 18:40:00
1:00 PM,39.2,39.2,100,30.09,10.0,Calm,Calm,-,N/A,Rain,Light Rain,0,2012-11-04 19:00:00
1:20 PM,39.2,39.2,100,30.08,10.0,Calm,Calm,-,N/A,Rain,Light Rain,0,2012-11-04 19:20:00
1:40 PM,39.2,39.2,100,30.08,10.0,NE,4.6,-,0.01,Rain,Light Rain,40,2012-11-04 19:40:00
2:00 PM,39.2,39.2,100,30.07,10.0,NE,5.8,-,0.01,Rain,Light Rain,50,2012-11-04 20:00:00
2:20 PM,39.2,39.2,100,30.06,10.0,NE,6.9,-,N/A,Rain,Light Rain,50,2012-11-04 20:20:00
2:40 PM,39.2,39.2,100,30.06,10.0,ENE,5.8,-,N/A,Rain,Light Rain,60,2012-11-04 20:40:00
3:00 PM,39.2,39.2,100,30.07,10.0,NE,9.2,-,0.01,Rain,Light Rain,40,2012-11-04 21:00:00
3:20 PM,37.4,37.4,100,30.07,10.0,NE,6.9,-,N/A,Rain,Light Rain,50,2012-11-04 21:20:00
3:40 PM,37.4,37.4,100,30.07,5.0,NE,6.9,-,0.01,Rain,Light Rain,40,2012-11-04 21:40:00
4:00 PM,37.4,37.4,100,30.08,4.0,NE,5.8,-,0.03,Rain,Light Rain,40,2012-11-04 22:00:00
4:20 PM,37.4,37.4,100,30.08,4.0,NE,6.9,-,0.01,Rain,Light Rain,40,2012-11-04 22:20:00
4:40 PM,37.4,37.4,100,30.08,10.0,NE,6.9,-,0.02,Rain,Light Rain,40,2012-11-04 22:40:00
5:00 PM,37.4,37.4,100,30.08,8.0,NE,8.1,-,0.03,Rain,Light Rain,40,2012-11-04 23:00:00
5:20 PM,37.4,37.4,100,30.08,9.0,NE,6.9,-,0.01,Rain,Light Rain,40,2012-11-04 23:20:00
5:40 PM,37.4,37.4,100,30.09,5.0,NE,9.2,-,0.01,Rain,Light Rain,40,2012-11-04 23:40:00
6:00 PM,35.6,35.6,100,30.09,5.0,NE,8.1,-,0.01,Rain,Light Rain,50,2012-11-05 00:00:00
6:20 PM,35.6,35.6,100,30.10,6.0,NE,8.1,-,N/A,Rain,Light Rain,50,2012-11-05 00:20:00
6:40 PM,35.6,35.6,100,30.10,5.0,NE,8.1,-,N/A,Rain,Light Rain,50,2012-11-05 00:40:00
7:00 PM,35.6,35.6,100,30.11,5.0,NE,9.2,-,N/A,Rain,Light Rain,50,2012-11-05 01:00:00
7:20 PM,35.6,35.6,100,30.11,5.0,NE,8.1,-,N/A,Rain,Light Rain,50,2012-11-05 01:20:00
7:40 PM,35.6,35.6,100,30.11,4.0,NE,6.9,-,0.01,Rain,Light Rain,40,2012-11-05 01:40:00
8:00 PM,33.8,33.8,100,30.11,4.0,NNE,9.2,-,0.02,Rain,Light Rain,30,2012-11-05 02:00:00
8:20 PM,32.0,32.0,100,30.11,3.0,NNE,5.8,-,N/A,Rain,Light Rain,30,2012-11-05 02:20:00
8:40 PM,32.0,32.0,100,30.11,4.0,NNE,6.9,-,N/A,Rain,Light Rain,30,2012-11-05 02:40:00
9:00 PM,32.0,32.0,100,30.11,3.0,NNE,6.9,-,0.01,Rain,Light Rain,20,2012-11-05 03:00:00
9:20 PM,32.0,32.0,100,30.11,3.0,North,6.9,-,N/A,Rain,Light Rain,10,2012-11-05 03:20:00
9:40 PM,32.0,32.0,100,30.12,3.0,North,8.1,-,N/A,Rain,Light Rain,10,2012-11-05 03:40:00
10:00 PM,32.0,32.0,100,30.12,2.5,North,8.1,-,N/A,Rain,Light Rain,10,2012-11-05 04:00:00
10:20 PM,32.0,32.0,100,30.12,2.5,North,8.1,-,N/A,Snow,Light Snow,10,2012-11-05 04:20:00
10:40 PM,32.0,32.0,100,30.13,3.0,North,9.2,-,N/A,Rain,Light Rain,360,2012-11-05 04:40:00